FDX1415 NZNS-NZNR

Flight info

Callsign FDX1415
Flight time 1h 12m
Altitude 21000
Route SNAPA Y501 DUMOT H297 APITI DCT BITIL
Aircraft AT76/M-SDFGIRY/S

Departure

Time 2026-04-19 21:14
Airport Nelson Airport (NZNS)

Arrival

Time 2026-04-19 22:27
Airport Hawke's Bay Airport (NZNR)
Time Latitude Longitude Altitude Speed Heading
2026-04-19 21:05 -41.30054 173.22346 8 ft 0 kts 212°
2026-04-19 21:10 -41.30040 173.22357 13 ft 4 kts 217°
2026-04-19 21:10 -41.30026 173.22407 14 ft 6 kts 304°
2026-04-19 21:11 -41.30022 173.22404 15 ft 3 kts 311°
2026-04-19 21:11 -41.30008 173.22381 13 ft 6 kts 310°
2026-04-19 21:11 -41.29959 173.22379 12 ft 9 kts 18°
2026-04-19 21:11 -41.29886 173.22424 12 ft 13 kts 33°
2026-04-19 21:12 -41.29795 173.22486 11 ft 16 kts 27°
2026-04-19 21:12 -41.29689 173.22546 11 ft 17 kts 22°
2026-04-19 21:12 -41.29590 173.22647 9 ft 19 kts 50°
2026-04-19 21:12 -41.29562 173.22765 9 ft 14 kts 60°
2026-04-19 21:13 -41.29484 173.22852 9 ft 16 kts 40°
2026-04-19 21:13 -41.29396 173.22959 7 ft 18 kts 42°
2026-04-19 21:13 -41.29326 173.23023 8 ft 8 kts 357°
2026-04-19 21:13 -41.29264 173.22981 8 ft 11 kts 330°
2026-04-19 21:14 -41.29225 173.22918 7 ft 5 kts 228°
2026-04-19 21:14 -41.29299 173.22856 6 ft 39 kts 219°
2026-04-19 21:14 -41.29683 173.22323 83 ft 104 kts 224°
2026-04-19 21:14 -41.30210 173.21689 819 ft 99 kts 215°
2026-04-19 21:15 -41.30825 173.21059 1393 ft 118 kts 212°
2026-04-19 21:15 -41.31438 173.20298 2042 ft 131 kts 234°
2026-04-19 21:15 -41.31454 173.18951 2314 ft 171 kts 292°
2026-04-19 21:15 -41.30550 173.17811 2558 ft 193 kts 341°
2026-04-19 21:16 -41.29243 173.17381 2984 ft 199 kts 340°
2026-04-19 21:16 -41.28128 173.16266 3428 ft 205 kts 319°
2026-04-19 21:16 -41.27119 173.14924 4039 ft 202 kts 313°
2026-04-19 21:16 -41.26163 173.13548 4511 ft 204 kts 322°
2026-04-19 21:17 -41.24863 173.12853 4952 ft 203 kts 356°
2026-04-19 21:17 -41.23465 173.12680 5473 ft 200 kts
2026-04-19 21:17 -41.22217 173.13186 5942 ft 180 kts 51°
2026-04-19 21:17 -41.21560 173.14481 6475 ft 168 kts 70°
2026-04-19 21:18 -41.20973 173.15841 6958 ft 171 kts 67°
2026-04-19 21:18 -41.20336 173.17212 7396 ft 177 kts 63°
2026-04-19 21:18 -41.19611 173.18552 7856 ft 180 kts 59°
2026-04-19 21:18 -41.18804 173.19842 8324 ft 183 kts 54°
2026-04-19 21:19 -41.17926 173.21086 8805 ft 185 kts 51°
2026-04-19 21:19 -41.17325 173.21893 9118 ft 186 kts 50°
2026-04-19 21:19 -41.16405 173.23109 9578 ft 187 kts 49°
2026-04-19 21:19 -41.15480 173.24336 9992 ft 188 kts 49°
2026-04-19 21:20 -41.14555 173.25572 10424 ft 189 kts 49°
2026-04-19 21:20 -41.13628 173.26813 10837 ft 190 kts 48°
2026-04-19 21:20 -41.12697 173.28062 11253 ft 191 kts 48°
2026-04-19 21:20 -41.11762 173.29316 11646 ft 192 kts 48°
2026-04-19 21:21 -41.10823 173.30575 12048 ft 192 kts 47°
2026-04-19 21:21 -41.09878 173.31841 12458 ft 194 kts 47°
2026-04-19 21:21 -41.08931 173.33113 12877 ft 195 kts 47°
2026-04-19 21:21 -41.07975 173.34390 13270 ft 196 kts 47°
2026-04-19 21:22 -41.07015 173.35672 13633 ft 196 kts 47°
2026-04-19 21:22 -41.06052 173.36962 13965 ft 197 kts 47°
2026-04-19 21:22 -41.05084 173.38258 14298 ft 199 kts 47°
2026-04-19 21:22 -41.04108 173.39559 14618 ft 200 kts 47°
2026-04-19 21:23 -41.03129 173.40869 14930 ft 201 kts 47°
2026-04-19 21:23 -41.02143 173.42186 15233 ft 202 kts 47°
2026-04-19 21:23 -41.01151 173.43512 15529 ft 203 kts 47°
2026-04-19 21:23 -41.00154 173.44839 15816 ft 204 kts 47°
2026-04-19 21:24 -40.99151 173.46177 16114 ft 205 kts 47°
2026-04-19 21:24 -40.98143 173.47521 16421 ft 206 kts 47°
2026-04-19 21:24 -40.97128 173.48870 16717 ft 207 kts 47°
2026-04-19 21:24 -40.96109 173.50230 17000 ft 209 kts 47°
2026-04-19 21:25 -40.95083 173.51594 17276 ft 210 kts 47°
2026-04-19 21:25 -40.94064 173.52942 17663 ft 205 kts 46°
2026-04-19 21:25 -40.93054 173.54256 17890 ft 206 kts 47°
2026-04-19 21:25 -40.92028 173.55576 18107 ft 207 kts 47°
2026-04-19 21:26 -40.90996 173.56932 18315 ft 209 kts 48°
2026-04-19 21:26 -40.89977 173.58282 18556 ft 209 kts 47°
2026-04-19 21:26 -40.88961 173.59669 18766 ft 207 kts 52°
2026-04-19 21:26 -40.88388 173.61373 18928 ft 208 kts 78°
2026-04-19 21:27 -40.88124 173.63273 19096 ft 212 kts 81°
2026-04-19 21:27 -40.87894 173.65180 19350 ft 210 kts 80°
2026-04-19 21:27 -40.87657 173.67073 19583 ft 210 kts 80°
2026-04-19 21:27 -40.87387 173.68976 19731 ft 213 kts 78°
2026-04-19 21:28 -40.87094 173.70911 19880 ft 216 kts 78°
2026-04-19 21:28 -40.86794 173.72859 20030 ft 217 kts 78°
2026-04-19 21:28 -40.86485 173.74819 20128 ft 220 kts 78°
2026-04-19 21:28 -40.86175 173.76812 20251 ft 222 kts 78°
2026-04-19 21:29 -40.85867 173.78806 20383 ft 222 kts 78°
2026-04-19 21:29 -40.85552 173.80804 20509 ft 223 kts 78°
2026-04-19 21:29 -40.85237 173.82823 20603 ft 225 kts 78°
2026-04-19 21:29 -40.84887 173.84842 20703 ft 226 kts 70°
2026-04-19 21:30 -40.84166 173.86699 20747 ft 230 kts 61°
2026-04-19 21:30 -40.83345 173.88498 20883 ft 229 kts 60°
2026-04-19 21:30 -40.82520 173.90315 20935 ft 232 kts 61°
2026-04-19 21:30 -40.81727 173.92192 20972 ft 236 kts 63°
2026-04-19 21:31 -40.80953 173.94123 20979 ft 240 kts 63°
2026-04-19 21:31 -40.80165 173.96085 20983 ft 243 kts 63°
2026-04-19 21:31 -40.79378 173.98034 20988 ft 245 kts 63°
2026-04-19 21:31 -40.78569 174.00029 20990 ft 247 kts 63°
2026-04-19 21:32 -40.77747 174.02061 20989 ft 248 kts 62°
2026-04-19 21:32 -40.76942 174.04050 20991 ft 250 kts 63°
2026-04-19 21:32 -40.76124 174.06069 20993 ft 250 kts 62°
2026-04-19 21:32 -40.75304 174.08099 20994 ft 251 kts 62°
2026-04-19 21:33 -40.74480 174.10127 20992 ft 251 kts 62°
2026-04-19 21:33 -40.73655 174.12155 20990 ft 252 kts 62°
2026-04-19 21:33 -40.72828 174.14188 20994 ft 251 kts 62°
2026-04-19 21:33 -40.71999 174.16222 20989 ft 251 kts 62°
2026-04-19 21:34 -40.71175 174.18251 20992 ft 251 kts 62°
2026-04-19 21:34 -40.70346 174.20283 20989 ft 252 kts 62°
2026-04-19 21:34 -40.69517 174.22313 20991 ft 251 kts 62°
2026-04-19 21:34 -40.68692 174.24344 20989 ft 252 kts 62°
2026-04-19 21:35 -40.67864 174.26372 20990 ft 251 kts 62°
2026-04-19 21:35 -40.67035 174.28398 20990 ft 251 kts 62°
2026-04-19 21:35 -40.66212 174.30430 20981 ft 251 kts 62°
2026-04-19 21:35 -40.65394 174.32471 20986 ft 252 kts 62°
2026-04-19 21:36 -40.64569 174.34512 20987 ft 253 kts 62°
2026-04-19 21:36 -40.63737 174.36549 20989 ft 253 kts 61°
2026-04-19 21:36 -40.62901 174.38588 20989 ft 253 kts 61°
2026-04-19 21:36 -40.62061 174.40629 20990 ft 254 kts 61°
2026-04-19 21:37 -40.61222 174.42673 20990 ft 254 kts 61°
2026-04-19 21:37 -40.60382 174.44717 20987 ft 254 kts 61°
2026-04-19 21:37 -40.59540 174.46765 20986 ft 254 kts 61°
2026-04-19 21:37 -40.58709 174.48784 20986 ft 254 kts 61°
2026-04-19 21:38 -40.57868 174.50828 20983 ft 254 kts 61°
2026-04-19 21:38 -40.57025 174.52876 20981 ft 254 kts 61°
2026-04-19 21:38 -40.56183 174.54919 20980 ft 254 kts 61°
2026-04-19 21:38 -40.55340 174.56957 20980 ft 254 kts 61°
2026-04-19 21:39 -40.54500 174.58999 20981 ft 254 kts 61°
2026-04-19 21:39 -40.53658 174.61039 20981 ft 254 kts 61°
2026-04-19 21:39 -40.52816 174.63081 20981 ft 254 kts 61°
2026-04-19 21:39 -40.51974 174.65120 20980 ft 254 kts 61°
2026-04-19 21:40 -40.50288 174.69203 20971 ft 255 kts 60°
2026-04-19 21:40 -40.49438 174.71257 20975 ft 256 kts 60°
2026-04-19 21:40 -40.48583 174.73312 20975 ft 257 kts 60°
2026-04-19 21:41 -40.47724 174.75375 20974 ft 258 kts 60°
2026-04-19 21:41 -40.46865 174.77443 20975 ft 258 kts 60°
2026-04-19 21:41 -40.46005 174.79514 20975 ft 258 kts 60°
2026-04-19 21:41 -40.45144 174.81586 20975 ft 259 kts 60°
2026-04-19 21:42 -40.44282 174.83659 20975 ft 259 kts 60°
2026-04-19 21:42 -40.43419 174.85731 20975 ft 259 kts 60°
2026-04-19 21:42 -40.42554 174.87808 20976 ft 259 kts 60°
2026-04-19 21:42 -40.41690 174.89881 20975 ft 259 kts 60°
2026-04-19 21:43 -40.40825 174.91955 20974 ft 259 kts 60°
2026-04-19 21:43 -40.39959 174.94030 20974 ft 259 kts 60°
2026-04-19 21:43 -40.39092 174.96103 20975 ft 259 kts 60°
2026-04-19 21:43 -40.38226 174.98176 20975 ft 259 kts 60°
2026-04-19 21:44 -40.37359 175.00249 20975 ft 259 kts 60°
2026-04-19 21:44 -40.36493 175.02321 20978 ft 259 kts 59°
2026-04-19 21:44 -40.35626 175.04397 20973 ft 259 kts 60°
2026-04-19 21:44 -40.34770 175.06473 20964 ft 259 kts 58°
2026-04-19 21:45 -40.33912 175.08545 20967 ft 258 kts 58°
2026-04-19 21:45 -40.33050 175.10609 20969 ft 258 kts 58°
2026-04-19 21:45 -40.32187 175.12667 20970 ft 258 kts 58°
2026-04-19 21:45 -40.31322 175.14724 20971 ft 258 kts 58°
2026-04-19 21:46 -40.30457 175.16782 20971 ft 258 kts 58°
2026-04-19 21:46 -40.29593 175.18837 20971 ft 258 kts 58°
2026-04-19 21:46 -40.28727 175.20894 20968 ft 258 kts 58°
2026-04-19 21:46 -40.27859 175.22948 20967 ft 258 kts 58°
2026-04-19 21:47 -40.26994 175.25001 20967 ft 257 kts 58°
2026-04-19 21:47 -40.26139 175.27027 20969 ft 257 kts 58°
2026-04-19 21:47 -40.25273 175.29076 20972 ft 257 kts 58°
2026-04-19 21:47 -40.24408 175.31126 20972 ft 257 kts 58°
2026-04-19 21:48 -40.23541 175.33173 20962 ft 257 kts 58°
2026-04-19 21:48 -40.22676 175.35219 20961 ft 257 kts 58°
2026-04-19 21:48 -40.21812 175.37266 20961 ft 257 kts 58°
2026-04-19 21:48 -40.20946 175.39315 20965 ft 257 kts 58°
2026-04-19 21:49 -40.20001 175.41292 20965 ft 256 kts 53°
2026-04-19 21:49 -40.18981 175.43203 20949 ft 256 kts 51°
2026-04-19 21:49 -40.17968 175.45114 20953 ft 255 kts 51°
2026-04-19 21:49 -40.17388 175.46216 20956 ft 255 kts 51°
2026-04-19 22:06 -40.16918 175.47116 20960 ft 255 kts 51°
2026-04-19 22:06 -40.15919 175.49034 20962 ft 255 kts 52°
2026-04-19 22:07 -40.14928 175.50958 20961 ft 255 kts 52°
2026-04-19 22:07 -40.13941 175.52886 20965 ft 255 kts 52°
2026-04-19 22:07 -40.12954 175.54813 20964 ft 255 kts 52°
2026-04-19 22:07 -40.12302 175.56088 20965 ft 255 kts 52°
2026-04-19 22:08 -40.11319 175.58007 20963 ft 254 kts 52°
2026-04-19 22:08 -40.10337 175.59923 20965 ft 253 kts 52°
2026-04-19 22:08 -40.09356 175.61835 20965 ft 253 kts 52°
2026-04-19 22:08 -40.08376 175.63744 20967 ft 253 kts 52°
2026-04-19 22:09 -40.07396 175.65658 20972 ft 254 kts 52°
2026-04-19 22:09 -40.06413 175.67572 20974 ft 254 kts 52°
2026-04-19 22:09 -40.05429 175.69486 20973 ft 254 kts 52°
2026-04-19 22:09 -40.04447 175.71393 20972 ft 253 kts 52°
2026-04-19 22:10 -40.03465 175.73302 20974 ft 253 kts 51°
2026-04-19 22:10 -40.02484 175.75208 20955 ft 254 kts 52°
2026-04-19 22:10 -40.01474 175.77165 20595 ft 266 kts 52°
2026-04-19 22:10 -40.00424 175.79200 20231 ft 275 kts 52°
2026-04-19 22:11 -39.99343 175.81302 19841 ft 282 kts 52°
2026-04-19 22:11 -39.98249 175.83458 19466 ft 287 kts 52°
2026-04-19 22:11 -39.97141 175.85651 19089 ft 291 kts 53°
2026-04-19 22:11 -39.96027 175.87876 18710 ft 294 kts 53°
2026-04-19 22:12 -39.94911 175.90123 18326 ft 297 kts 53°
2026-04-19 22:12 -39.93786 175.92388 17949 ft 298 kts 53°
2026-04-19 22:12 -39.92656 175.94654 17505 ft 298 kts 53°
2026-04-19 22:12 -39.91526 175.96913 17088 ft 298 kts 53°
2026-04-19 22:13 -39.90408 175.99140 16667 ft 298 kts 53°
2026-04-19 22:13 -39.89274 176.01395 16269 ft 298 kts 53°
2026-04-19 22:13 -39.88139 176.03657 15857 ft 299 kts 53°
2026-04-19 22:13 -39.87010 176.05919 15534 ft 295 kts 54°
2026-04-19 22:14 -39.85898 176.08137 15314 ft 290 kts 53°
2026-04-19 22:14 -39.84800 176.10320 15071 ft 286 kts 53°
2026-04-19 22:14 -39.83711 176.12478 14831 ft 285 kts 54°
2026-04-19 22:14 -39.82629 176.14631 14610 ft 284 kts 54°
2026-04-19 22:15 -39.81550 176.16773 14332 ft 282 kts 54°
2026-04-19 22:15 -39.80468 176.18904 14096 ft 282 kts 54°
2026-04-19 22:15 -39.79400 176.21038 13868 ft 281 kts 54°
2026-04-19 22:15 -39.78335 176.23170 13649 ft 281 kts 54°
2026-04-19 22:16 -39.77270 176.25287 13431 ft 279 kts 53°
2026-04-19 22:16 -39.76241 176.27327 13175 ft 249 kts 54°
2026-04-19 22:16 -39.75378 176.29084 12821 ft 222 kts 53°
2026-04-19 22:16 -39.74477 176.30830 12455 ft 244 kts 52°
2026-04-19 22:17 -39.73486 176.32712 12076 ft 258 kts 54°
2026-04-19 22:17 -39.72713 176.34892 11662 ft 274 kts 67°
2026-04-19 22:17 -39.72092 176.37286 11237 ft 283 kts 69°
2026-04-19 22:17 -39.71500 176.39628 10824 ft 252 kts 68°
2026-04-19 22:18 -39.70931 176.41701 10471 ft 243 kts 66°
2026-04-19 22:18 -39.70313 176.43736 10117 ft 242 kts 65°
2026-04-19 22:18 -39.69700 176.45765 9764 ft 240 kts 65°
2026-04-19 22:18 -39.69101 176.47780 9388 ft 238 kts 66°
2026-04-19 22:19 -39.68507 176.49782 9021 ft 237 kts 66°
2026-04-19 22:19 -39.67915 176.51774 8649 ft 236 kts 66°
2026-04-19 22:19 -39.67325 176.53756 8289 ft 235 kts 66°
2026-04-19 22:19 -39.66736 176.55740 7925 ft 235 kts 67°
2026-04-19 22:20 -39.66154 176.57687 7568 ft 234 kts 66°
2026-04-19 22:20 -39.65564 176.59653 7215 ft 233 kts 67°
2026-04-19 22:20 -39.64983 176.61614 6875 ft 232 kts 67°
2026-04-19 22:20 -39.64399 176.63567 6527 ft 232 kts 67°
2026-04-19 22:21 -39.63818 176.65517 6192 ft 231 kts 68°
2026-04-19 22:21 -39.63244 176.67454 5834 ft 230 kts 67°
2026-04-19 22:21 -39.62666 176.69381 5494 ft 229 kts 68°
2026-04-19 22:21 -39.62091 176.71298 5149 ft 228 kts 68°
2026-04-19 22:22 -39.61514 176.73202 4798 ft 226 kts 67°
2026-04-19 22:22 -39.60939 176.75089 4466 ft 224 kts 68°
2026-04-19 22:22 -39.60430 176.76961 4129 ft 217 kts 78°
2026-04-19 22:22 -39.60473 176.78900 3799 ft 215 kts 94°
2026-04-19 22:23 -39.60663 176.80825 3478 ft 215 kts 96°
2026-04-19 22:23 -39.60690 176.82743 3088 ft 213 kts 73°
2026-04-19 22:23 -39.59867 176.84280 2724 ft 211 kts 35°
2026-04-19 22:23 -39.58616 176.85045 2355 ft 185 kts 20°
2026-04-19 22:24 -39.57474 176.85461 2055 ft 157 kts 12°
2026-04-19 22:24 -39.56414 176.85706 1800 ft 159 kts
2026-04-19 22:24 -39.55309 176.85859 1563 ft 161 kts
2026-04-19 22:24 -39.54215 176.85997 1461 ft 156 kts
2026-04-19 22:25 -39.53136 176.86112 1227 ft 154 kts
2026-04-19 22:25 -39.52122 176.86198 1023 ft 136 kts
2026-04-19 22:25 -39.51239 176.86263 803 ft 117 kts
2026-04-19 22:25 -39.50480 176.86334 639 ft 102 kts
2026-04-19 22:26 -39.49770 176.86402 519 ft 102 kts
2026-04-19 22:26 -39.49044 176.86486 372 ft 109 kts
2026-04-19 22:26 -39.48283 176.86565 157 ft 109 kts
2026-04-19 22:26 -39.47543 176.86651 26 ft 100 kts
2026-04-19 22:27 -39.47138 176.86697 22 ft 20 kts
2026-04-19 22:27 -39.47006 176.86711 24 ft 17 kts
2026-04-19 22:27 -39.46916 176.86723 25 ft 15 kts